Regional Weather Roundup
Issued by NWS State College, PA

Home | Current Version | Previous Version | Graphics & Text | Print | Product List | Glossary On
Versions: 1 2 3 4 5 6 7 8 9 10 11 12 13 14 15 16 17 18 19 20 21 22 23 24 25 26 27 28 29 30 31 32 33 34 35 36 37 38 39 40 41 42 43 44 45 46 47 48 49 50
000
ASUS41 KCTP 151710
RWRCTP

REGIONAL WEATHER ROUNDUP
NATIONAL WEATHER SERVICE STATE COLLEGE PA
100 PM EDT MON SEP 15 2014

Note: "fair" indicates few or no clouds below 12,000 feet with no
significant weather and/or obstructions to visibility.

* = STATION THAT DOES NOT REPORT PRECIPITATION /E.G. RAIN...SNOW...ETC/
    THUNDER OR FOG.

PAZ002>004-007>009-013>016-020>023-029>032-151800-
WESTERN PENNSYLVANIA

CITY           SKY/WX    TMP DP  RH WIND       PRES   REMARKS
ERIE           PTSUNNY   67  45  45 SW8       30.15F
MEADVILLE      MOSUNNY   63  46  54 SW12      30.17F
FRANKLIN*      PTSUNNY   61  45  55 S6        30.21F
NEW CASTLE     FAIR      65  48  53 CALM      30.20F
BEAVER COUNTY  MOSUNNY   63  48  59 S5        30.20F
BUTLER*        MOSUNNY   64  46  52 S7        30.22F
PITTSBURGH INT PTSUNNY   65  45  48 S6        30.20F
PITTSBURGH     MOSUNNY   63  45  51 W5        30.20F
INDIANA*       SUNNY     63  45  51 CALM      30.25S
LATROBE        SUNNY     64  48  55 SW6       30.22F
WASHINGTON CO* MOSUNNY   64  48  55 E3        30.22F
$$

PAZ004>006-010>012-017>019-024>028-033>037-041-042-045-046-049>053-151800-
CENTRAL PENNSYLVANIA

CITY           SKY/WX    TMP DP  RH WIND       PRES   REMARKS
BRADFORD       MOSUNNY   61  44  53 SW9       30.19F
DUBOIS         PTSUNNY   61  46  57 SW8       30.20F
CLEARFIELD     SUNNY     62  47  57 S5        30.21F
JOHNSTOWN      SUNNY     61  46  57 VRB3      30.21F
ALTOONA        SUNNY     62  47  57 CALM      30.22F
STATE COLLEGE  MOSUNNY   63  48  59 CALM      30.22F
WILLIAMSPORT   SUNNY     64  46  52 VRB3      30.20F
SELINSGROVE    LGT RAIN  67  48  50 CALM      30.22F
FT INDIANTOWN  PTSUNNY   67  48  50 SE5       30.21F
CAPITAL CITY   MOSUNNY   67  45  45 CALM      30.21F
HARRISBURG     PTSUNNY   68  46  45 CALM      30.21F
YORK           SUNNY     66  47  50 CALM      30.21F
$$

PAZ038>040-043-044-047-048-054-055-060>062-067>071-151800-
EASTERN PENNSYLVANIA

CITY           SKY/WX    TMP DP  RH WIND       PRES   REMARKS
SCRANTON       SUNNY     64  41  42 NW7       30.20F
MOUNT POCONO   MOSUNNY   61  42  49 CALM      30.21F
ALLENTOWN      MOSUNNY   67  43  41 CALM      30.22F
QUAKERTOWN*    PTSUNNY   66  46  48 MISG      30.22F
READING        PTSUNNY   68  45  43 S7        30.21F
LANCASTER      MOSUNNY   68  44  42 VRB6      30.22F
COATESVILLE    SUNNY     64  46  52 W3        30.23S
POTTSTOWN      MOSUNNY   65  46  50 VRB3      30.23F
BLUE BELL      SUNNY     70  45  40 E3        30.20F
DOYLESTOWN     MOSUNNY   65  43  44 VRB3      30.20F
WILLOW GROVE   NOT AVBL
NORTH PHILA    MOSUNNY   72  44  36 CALM      30.22F
PHILADELPHIA   MOSUNNY   69  45  41 S6        30.21F
$$


USA.gov is the U.S. government's official web portal to all federal, state and local government web resources and services.